DW0186 Weather Reports


time (UTC)temp
C
wind
direction
speed
KPH
gust
KPH
rain 1hr
cm
rain 24hr
cm
rain mn
cm
humidity
%
barometer
mb
20260505233047 16 347 0.0 0.0 0.00 0.00 0.00 69 1014.8
20260505231603 16 347 0.0 0.0 0.00 0.00 0.00 68 1015.0
20260505230051 16 347 0.0 0.0 0.00 0.00 0.00 69 1014.9
20260505224549 16 347 0.0 0.0 0.00 0.00 0.00 70 1014.9
20260505223048 16 347 0.0 0.0 0.00 0.00 0.00 70 1015.0
20260505221553 16 347 0.0 0.0 0.00 0.00 0.00 70 1015.0
20260505220044 16 347 0.0 0.0 0.00 0.00 0.00 69 1015.1
20260505214603 16 347 0.0 0.0 0.00 0.00 0.00 70 1015.1
20260505213044 16 347 0.0 1.6 0.00 0.00 0.00 70 1015.4
20260505211544 16 346 0.0 0.0 0.00 0.00 0.00 69 1015.3
20260505210044 16 346 0.0 0.0 0.00 0.00 0.00 68 1015.2
20260505204542 16 346 0.0 0.0 0.00 0.00 0.00 69 1015.2
20260505203040 16 346 0.0 1.6 0.00 0.00 0.00 71 1015.2
20260505201539 16 346 0.0 0.0 0.00 0.00 0.00 72 1015.3
20260505200045 16 346 0.0 0.0 0.00 0.00 0.00 73 1015.6
20260505194538 16 346 0.0 0.0 0.00 0.00 0.00 71 1015.6
20260505193038 16 346 0.0 0.0 0.00 0.00 0.00 71 1015.7
20260505191542 15 346 0.0 0.0 0.00 0.00 0.00 72 1015.6
20260505190032 15 346 0.0 0.0 0.00 0.00 0.00 73 1015.4
20260505184530 15 346 0.0 0.0 0.00 0.00 0.00 75 1015.5
20260505183030 14 346 0.0 0.0 0.00 0.00 0.00 75 1015.6
20260505181522 14 346 0.0 0.0 0.00 0.00 0.00 75 1015.6
20260505180023 14 346 0.0 0.0 0.00 0.00 0.00 74 1015.4
20260505174518 14 346 0.0 0.0 0.00 0.00 0.00 74 1015.3
20260505173017 14 346 0.0 0.0 0.00 0.00 0.00 73 1015.1
20260505171516 14 346 0.0 0.0 0.00 0.00 0.00 72 1015.0
20260505170014 13 346 0.0 0.0 0.00 0.00 0.00 73 1015.0
20260505164512 13 346 0.0 0.0 0.00 0.00 0.00 73 1014.9
20260505163016 13 346 0.0 0.0 0.00 0.00 0.00 73 1014.8
20260505161509 13 346 0.0 0.0 0.00 0.00 0.00 75 1014.8
20260505153108 12 346 0.0 0.0 0.00 0.00 0.00 80 1014.6
20260505151607 11 346 0.0 0.0 0.00 0.00 0.00 81 1014.5
20260505140107 10 345 0.0 0.0 0.00 0.00 0.00 84 1014.1
20260505124544 10 345 0.0 0.0 0.00 0.00 0.00 84 1013.7
20260505123048 10 345 0.0 0.0 0.00 0.00 0.00 84 1014.0
20260505121542 10 345 0.0 0.0 0.00 0.00 0.00 84 1014.0
20260505120047 10 345 0.0 0.0 0.00 0.00 0.00 83 1013.9
20260505114545 10 345 0.0 0.0 0.00 0.00 0.00 82 1014.1
20260505113039 11 345 0.0 0.0 0.00 0.00 0.00 82 1014.0
20260505111537 11 345 0.0 0.0 0.00 0.00 0.00 80 1014.1
20260505101542 11 345 0.0 0.0 0.00 0.00 0.00 78 1014.0
20260505100030 11 345 0.0 0.0 0.00 0.00 0.00 78 1014.2
20260505094536 11 345 0.0 0.0 0.00 0.00 0.00 77 1014.2
20260505093030 11 345 0.0 0.0 0.00 0.00 0.00 76 1014.3
20260505091529 11 345 0.0 0.0 0.00 0.00 0.00 74 1014.2
20260505090025 11 345 0.0 0.0 0.00 0.00 0.00 74 1014.4
20260505084524 11 345 0.0 0.0 0.00 0.00 0.00 75 1014.6
20260505083024 11 345 0.0 0.0 0.00 0.00 0.00 74 1014.8
20260505081522 11 345 0.0 0.0 0.00 0.00 0.00 75 1014.8
20260505080021 11 345 0.0 0.0 0.00 0.00 0.00 76 1014.9
20260505074520 11 345 0.0 0.0 0.00 0.00 0.00 78 1014.9
20260505073018 11 345 0.0 0.0 0.00 0.00 0.00 80 1014.9
20260505071529 12 345 0.0 0.0 0.00 0.00 0.00 80 1014.8
20260505070016 12 345 0.0 0.0 0.00 0.00 0.00 80 1014.6
20260505064515 12 345 0.0 0.0 0.00 0.00 0.00 80 1014.5
20260505063017 12 345 0.0 0.0 0.00 0.00 0.00 79 1014.5
20260505061517 12 345 0.0 0.0 0.00 0.00 0.00 79 1014.3
20260505060033 12 345 0.0 0.0 0.00 0.00 0.00 78 1014.3
20260505054517 12 345 0.0 0.0 0.00 0.00 0.00 77 1014.5
20260505053013 12 345 0.0 0.0 0.00 0.00 0.00 76 1014.7
20260505051519 12 345 0.0 0.0 0.00 0.00 0.00 75 1014.9
20260505041510 13 345 0.0 0.0 0.00 0.00 0.00 73 1014.5
20260505040010 13 346 0.0 0.0 0.00 0.00 0.00 71 1014.2
20260505034508 13 346 0.0 0.0 0.00 0.00 0.00 69 1014.1
20260505033012 13 346 0.0 0.0 0.00 0.00 0.00 67 1013.7
20260505031507 14 346 0.0 0.0 0.00 0.00 0.00 66 1013.5
20260505030007 15 346 0.0 0.0 0.00 0.00 0.00 66 1013.6
20260505024510 15 346 0.0 0.0 0.00 0.00 0.00 66 1013.5
20260505023017 15 346 0.0 1.6 0.00 0.00 0.00 66 1013.6
20260505021513 15 346 0.0 1.6 0.00 0.00 0.00 64 1013.5
20260505020007 15 346 0.0 0.0 0.00 0.00 0.00 65 1013.4
20260505014512 16 346 0.0 3.2 0.00 0.00 0.00 63 1013.5
20260505013004 16 15 0.0 4.8 0.00 0.00 0.00 62 1013.4
20260505011505 16 292 0.0 1.6 0.00 0.00 0.00 61 1013.6
20260505010004 16 345 0.0 0.0 0.00 0.00 0.00 62 1013.7
20260505004503 17 275 0.0 0.0 0.00 0.00 0.00 63 1013.8
20260505003002 17 209 0.0 1.6 0.00 0.00 0.00 64 1013.9
20260505001502 16 221 0.0 0.0 0.00 0.00 0.00 64 1013.8
20260505000002 16 221 0.0 0.0 0.00 0.00 0.00 64 1013.7
20260504234600 16 221 0.0 0.0 0.00 0.00 0.00 63 1013.8